Flag for Senegal Weather past 2 weeks in Dakar, Senegal

Now
72 °F

Clear.


Feels Like: 74 °F
Forecast: N/A
Wind: 12 mph from North

Location: Dakar / Yoff

Current Time: Dec 18, 2014 at 10:52:06 PM

Latest Report: Dec 18, 2014 at 10:30 PM


Visibility: 10 mi

Pressure: 29.98 "Hg

Humidity: 73%

Dew point: 63 °F

Location of DakarLocation

Historic Weather in Dakar — Graph

°F

Dakar temperature yesterday

Maximum temperature yesterday: 77 °F (at 2:30 PM)
Minimum temperature yesterday: 70 °F (at 4:30 AM)
Average temperature yesterday: 72 °F

Past Weeks' High & Low Weather Summary

 TemperatureHumidityPressure
High91 °F (Dec 9, 2:30 PM)94% (Dec 8, 8:00 AM)30.07 "Hg (Dec 8, 8:00 AM)
Low68 °F (Dec 13, 8:00 AM)9% (Dec 11, 1:30 PM)29.80 "Hg (Dec 8, 3:30 PM)
Average76 °F55%29.92 "Hg
* Reported Dec 3 10:00 PM — Dec 18 10:00 PM, Dakar, Weather by CustomWeather, © 2014

Note: Actual official high and low records may vary slightly from our data, if they occured in-between our weather recording intervals... More about our weather records

Advertising

Dakar weather history for previous 24 hours

 ConditionsComfort  
Time TempWeatherWind HumidityBarometerVisibility
10:00 PM
Dec 18
72 °FClear.12 mph73%29.98 "Hg10 mi
9:30 PM72 °FMild.N/A73%29.95 "HgN/A
9:00 PM73 °FClear.13 mph65%29.95 "Hg10 mi
8:30 PM73 °FClear.14 mph65%29.92 "Hg10 mi
8:00 PM73 °FClear.13 mph61%29.92 "Hg10 mi
7:30 PM73 °FClear.12 mph61%29.92 "Hg10 mi
7:00 PM73 °FClear.12 mph61%29.89 "Hg10 mi
6:30 PM75 °FSunny.13 mph54%29.89 "Hg10 mi
6:00 PM77 °FSunny.14 mph47%29.89 "Hg10 mi
5:30 PM77 °FSunny.13 mph44%29.89 "Hg10 mi
5:00 PM77 °FSunny.14 mph44%29.86 "Hg10 mi
4:30 PM77 °FSunny.15 mph42%29.86 "Hg10 mi
4:00 PM79 °FSunny.15 mph39%29.86 "Hg10 mi
3:30 PM79 °FSunny.15 mph34%29.89 "Hg10 mi
3:00 PM79 °FSunny.15 mph34%29.89 "Hg10 mi
2:30 PM79 °FSunny.14 mph34%29.89 "Hg10 mi
2:00 PM79 °FSunny.14 mph32%29.89 "Hg10 mi
1:30 PM79 °FSunny.14 mph34%29.92 "Hg10 mi
1:00 PM77 °FSunny.14 mph34%29.92 "Hg10 mi
12:30 PM77 °FSunny.13 mph36%29.95 "Hg10 mi
12:00 PM77 °FSunny.10 mph34%29.95 "Hg10 mi
11:30 AM75 °FSunny.8 mph36%29.98 "Hg10 mi
11:00 AM75 °FPassing clouds.9 mph36%29.98 "HgN/A
10:30 AM75 °FSunny.8 mph29%29.98 "Hg10 mi
10:00 AM73 °FSunny.9 mph31%29.98 "Hg10 mi
9:30 AM72 °FClear.10 mph36%29.98 "Hg5 mi
9:00 AM70 °FClear.10 mph38%29.98 "Hg5 mi
8:30 AM70 °FClear.10 mph46%29.95 "Hg5 mi
8:00 AM70 °FSunny.8 mph57%29.95 "Hg10 mi
7:30 AM70 °FSunny.9 mph57%29.92 "Hg10 mi
7:00 AM70 °FClear.9 mph53%29.92 "Hg10 mi
6:30 AM70 °FClear.10 mph50%29.92 "Hg10 mi
6:00 AM70 °FClear.9 mph46%29.92 "Hg10 mi
5:30 AM70 °FClear.10 mph53%29.92 "Hg10 mi
5:00 AM70 °FPassing clouds.12 mph57%29.89 "HgN/A
4:30 AM72 °FClear.10 mph57%29.92 "Hg10 mi
4:00 AM70 °FClear.9 mph64%29.92 "Hg10 mi
3:30 AM70 °FClear.8 mph69%29.92 "Hg10 mi
3:00 AM70 °FClear.8 mph78%29.92 "Hg10 mi
2:30 AM70 °FClear.7 mph83%29.95 "Hg10 mi
2:00 AM70 °FClear.9 mph78%29.95 "Hg10 mi
1:30 AM70 °FClear.7 mph78%29.95 "Hg10 mi
1:00 AM72 °FClear.8 mph73%29.95 "Hg10 mi
12:30 AM72 °FClear.9 mph73%29.95 "Hg10 mi
12:00 AM72 °FClear.9 mph73%29.98 "Hg10 mi
11:30 PM
Dec 17
72 °FClear.9 mph73%29.98 "Hg10 mi
11:00 PM72 °FClear.9 mph73%29.98 "Hg10 mi
10:30 PM72 °FClear.9 mph73%29.98 "Hg10 mi
10:00 PM72 °FClear.12 mph73%29.98 "Hg10 mi
Weather by CustomWeather, © 2014

See weather overviewHow to use our weather pages